❰ Current Conditions

Wind Advisory
WIND ADVISORY REMAINS IN EFFECT UNTIL 7 AM EST THURSDAY

Wind Advisory issued February 28 at 7:20PM EST until February 29 at 7:00AM EST by NWS Boston/Norton MA

* WHAT...West winds 20 to 25 mph with gusts up to 50 mph.

* WHERE...In Connecticut, Tolland and Windham Counties. In Massachusetts, Eastern Essex, Western Norfolk, Southeast Middlesex and Suffolk Counties. In Rhode Island, Northwest Providence County.

* WHEN...Until 7 AM EST Thursday.

* IMPACTS...Gusty winds could blow around unsecured objects. Tree limbs could be blown down and a few power outages may result.

* PRECAUTIONARY/PREPAREDNESS ACTIONS...Use extra caution when driving, especially if operating a high profile vehicle. Secure outdoor objects.

Expires: February 29 at 7:00 AM EST
NWS Regional Weather Roundup - New England Area
REGIONAL WEATHER ROUNDUP
NATIONAL WEATHER SERVICE BOSTON/NORTON MA
1100 PM EST WED FEB 28 2024

NOTE:  "FAIR" INDICATES FEW OR NO CLOUDS BELOW 12,000 FEET WITH NO 
SIGNIFICANT WEATHER AND/OR OBSTRUCTIONS TO VISIBILITY.

MAZALL-290500-
EASTERN MASSACHUSETTS
  
CITY           SKY/WX    TMP DP  RH WIND       PRES   REMARKS
BOSTON         LGT RAIN  48  45  89 W28G40    29.52R                  
BEVERLY        LGT RAIN  47  43  86 W23G39    29.50R                  
LAWRENCE       CLOUDY    47  40  76 W17G45    29.53R                  
BEDFORD        LGT RAIN  42  35  76 W23G38    29.56R                  
NORWOOD        LGT RAIN  45  37  73 W25G49    29.56R                  
MARSHFIELD     CLOUDY    55  52  88 SW20G37   29.46F                  
PLYMOUTH       LGT RAIN  55  52  89 SW25G39   29.49F                  
TAUNTON        LGT RAIN  54  50  86 SW14G26   29.50F FOG              
NEW BEDFORD    RAIN      53  51  93 SW23G43   29.51F                  
$$

MAZALL-290500-
CAPE COD AND THE ISLANDS
  
CITY           SKY/WX    TMP DP  RH WIND       PRES   REMARKS
FALMOUTH       CLOUDY    54  52  94 SW36G47   29.53F FOG              
HYANNIS        LGT RAIN  50  48  93 SW26G39   29.53F FOG              
CHATHAM        CLOUDY    47  32  56 SW10G23   29.58F HAZE             
PROVINCETOWN   LGT RAIN  48  48 100 SW26G36   29.51F                  
NANTUCKET      LGT RAIN  48  48 100 SW28G38   29.60S FOG              
MARTHAS VNYRD  LGT RAIN  49  48  97 SW18G26   29.57F FOG              
$$
 
MAZALL-290500-
CENTRAL AND WESTERN MASSACHUSETTS
  
CITY           SKY/WX    TMP DP  RH WIND       PRES   REMARKS
WORCESTER      FLURRIES  36  32  85 NW33G47   29.56R WCI  22          
FITCHBURG      LGT RAIN  38  31  76 W30G45    29.59R WCI  26          
ORANGE         MIX PCPN  37  30  75 NW24G33   29.65R WCI  26          
SPRINGFIELD    FLURRIES  39  29  68 NW21G37   29.64R WCI  29          
WESTFIELD      LGT RAIN  39  30  70 NW21G35   29.67R WCI  29          
NORTH ADAMS    FLURRIES  35  24  64 W21G29    29.75R WCI  24          
PITTSFIELD     MIX PCPN  31  22  69 W24G44    29.71R WCI  17          
$$
 
RIZALL-290500-
RHODE ISLAND
  
CITY           SKY/WX    TMP DP  RH WIND       PRES   REMARKS
PROVIDENCE     LGT RAIN  44  40  85 NW24G44   29.58R FOG              
NEWPORT        RAIN      48  47  96 SW16G37   29.52F FOG              
BLOCK ISLAND   RAIN      49  48  97 SW30G40   29.56F FOG              
SMITHFIELD     LGT RAIN  43  41  93 NW17G36   29.58R                  
WESTERLY       NOT AVBL                                               
$$
 
CTZALL-290500-
CONNECTICUT
  
CITY           SKY/WX    TMP DP  RH WIND       PRES   REMARKS
BRADLEY INTL   LGT RAIN  40  32  73 NW16G28   29.69R WCI  31          
HARTFORD       LGT RAIN  40  35  83 NW14G26   29.71R                  
PLAINVILLE     LGT RAIN  40  38  93 VRB6      29.68R                  
BRIDGEPORT     RAIN      45  38  76 NW18G36   29.68R                  
DANBURY        CLOUDY    44  31  60 NW22G40   29.72R                  
GROTON         RAIN      52  52 100 W21G29    29.56R                  
NEW HAVEN      LGT RAIN  47  40  76 NW20G40   29.68R                  
CHESTER        LGT RAIN  45  43  93 NW15G35   29.63R                  
MERIDEN        LGT RAIN  44  36  73 NW15G29   29.68R                  
WILLIMANTIC    LGT RAIN  39  35  86 NW18G36   29.65R WCI  30          
OXFORD         LGT RAIN  41  35  79 W20G31    29.67R WCI  32          
$$

MEZ002-015-021-024-NHZ003-005-008-011-012-014-VTZ005-008-290500-
NORTHERN NEW ENGLAND
  
CITY           SKY/WX    TMP DP  RH WIND       PRES   REMARKS
PORTLAND ME    LGT RAIN  47  47 100 S12       29.36  FOG              
BANGOR ME      LGT RAIN  47  46  97 S15G25    29.34S FOG              
CONCORD NH     LGT RAIN  42  32  67 W24G39    29.54R                  
MANCHESTER NH  LGT RAIN  45  36  70 NW22G31   29.53R                  
NASHUA NH      CLOUDY    43  35  73 W25G45    29.56R                  
PORTSMOUTH NH  LGT RAIN  48  39  71 W20G31    29.47                   
JAFFREY NH     LGT SNOW  37  29  72 W14G35    29.60R WCI  28          
KEENE NH       CLOUDY    37  27  67 W18G25    29.67R WCI  27          
BURLINGTON VT  CLOUDY    34  17  50 W16G36    29.67R WCI  24          
MT. WASHINGTON SNOW       9   9 100 W74G79      N/A  VSB 0   WCI -23  
$$

NYZ052-076-290500-
EASTERN NEW YORK
  
CITY           SKY/WX    TMP DP  RH WIND       PRES   REMARKS
ALBANY         FLURRIES  34  22  61 W29G41    29.83R WCI  20          
NEW YORK CITY  CLOUDY    47  32  56 NW24G47   29.74R                  
$$
 
ANZALL-290500-
MARINE OBSERVATIONS
  
STATION/POSITION TIME  TEMP    WIND        PRES    VSBY  WAVE
                       AIR SEA DIR/SP/G                  HT/PER
                 (UTC) (F)     (DEG/KT/KT) (MB)    (MI)  (FT/S)
BOSTON BUOY      0350   51 40  210/ 21/ 27  996.6F         5/ 5
BUZZARDS BAY     0300   47     210/ 33/ 35 1001.0F
NANTUCKET SOUND  0350   45 39  210/ 17/ 23 1001.3F         3/ 4
MASS BAY-STELLWA 0204   47 40  210/ 21/ 27  998.1S  1 7/8  6/ 6
ISLE OF SHOALS   0300   48     190/ 23/ 24  995.2F
S OF BLOCK IS    0356      42                N/A          14/10
$$

......................KEY.........................
  SKY/WX - SKY CONDITION/PRESENT WEATHER
  TMP    - TEMPERATURE IN FAHRENHEIT
  DWPT   - DEWPOINT IN FAHRENHEIT
  RH     - RELATIVE HUMIDITY IN PERCENT
  WIND   - DIRECTION AND SPEED IN MPH
  PRES   - MEAN SEA LEVEL PRESSURE IN INCHES OF HG
  WCI    - WIND CHILL INDEX
  VSB    - VISIBILITY IN MILES
  HX     - HEAT INDEX
  TC     - TEMPERATURE IN CELSIUS
  VRB    - VARIABLE WIND DIRECTION
  N/A    - NOT AVAILABLE